When you browse on this site, cookies collect data to enhance your experience and personalize the content and advertising you see.
Visit our Privacy Policy to learn more. By continuing to use the site, you agree to this use of cookies and data.
  • în România
  • Lista ţărilor
  • Pe 7 zile
  • Temperatura apei
  • Meteo pe hartă
  • Widget-uri
  • user-avatar
    Intrare

    Meteo pe oră la Miskolc

    Astăzi, 23 Octombrie, Miercuri

    Timp Temperatura Precipitaţii Vânt Presiune Umiditate
    00:00 +16°C° 0 mm 1 m/s 753 mmHg 77%
    01:00 +16°C° 0 mm 1 m/s 753 mmHg 78%
    02:00 +15°C° 0 mm 1 m/s 753 mmHg 80%
    03:00 +15°C° 0 mm 1 m/s 753 mmHg 81%
    04:00 +15°C° 0 mm 1 m/s 753 mmHg 83%
    05:00 +15°C° 0 mm 1 m/s 753 mmHg 82%
    06:00 +15°C° 0 mm 1 m/s 753 mmHg 82%
    07:00 +15°C° 0 mm 1 m/s 753 mmHg 82%
    08:00 +18°C° 0 mm 1 m/s 753 mmHg 74%
    09:00 +20°C° 0 mm 1 m/s 752 mmHg 66%
    10:00 +22°C° 0 mm 1 m/s 752 mmHg 58%
    11:00 +23°C° 0 mm 1 m/s 752 mmHg 55%
    12:00 +24°C° 0 mm 1 m/s 752 mmHg 51%
    13:00 +25°C° 0 mm 1 m/s 752 mmHg 48%
    14:00 +24°C° 0 mm 1 m/s 751 mmHg 51%
    15:00 +23°C° 0 mm 1 m/s 751 mmHg 55%
    16:00 +22°C° 0 mm 1 m/s 751 mmHg 58%
    17:00 +21°C° 0 mm 1 m/s 751 mmHg 62%
    18:00 +20°C° 0 mm 1 m/s 751 mmHg 66%
    19:00 +19°C° 0 mm 1 m/s 751 mmHg 70%
    20:00 +18°C° 0 mm 1 m/s 750 mmHg 71%
    21:00 +18°C° 0 mm 1 m/s 750 mmHg 73%
    22:00 +16°C° 0 mm 1 m/s 750 mmHg 74%
    23:00 +16°C° 0 mm 1 m/s 750 mmHg 76%

    Mâine, 24 Octombrie, Joi

    Timp Temperatura Precipitaţii Vânt Presiune Umiditate
    00:00 +16°C° 0 mm 1 m/s 750 mmHg 77%
    01:00 +15°C° 0 mm 1 m/s 750 mmHg 79%
    02:00 +15°C° 0 mm 1 m/s 750 mmHg 80%
    03:00 +14°C° 0 mm 1 m/s 750 mmHg 81%
    04:00 +14°C° 0 mm 1 m/s 749 mmHg 82%
    05:00 +14°C° 0 mm 1 m/s 749 mmHg 81%
    06:00 +13°C° 0 mm 0 m/s 749 mmHg 81%
    07:00 +13°C° 0 mm 0 m/s 749 mmHg 80%
    08:00 +16°C° 0 mm 1 m/s 749 mmHg 72%
    09:00 +19°C° 0 mm 1 m/s 749 mmHg 64%
    10:00 +21°C° 0 mm 1 m/s 749 mmHg 55%
    11:00 +21°C° 0 mm 2 m/s 749 mmHg 50%
    12:00 +23°C° 0 mm 2 m/s 749 mmHg 45%
    13:00 +24°C° 0 mm 2 m/s 748 mmHg 39%
    14:00 +23°C° 0 mm 2 m/s 748 mmHg 42%
    15:00 +22°C° 0 mm 1 m/s 748 mmHg 44%
    16:00 +21°C° 0 mm 1 m/s 747 mmHg 46%
    17:00 +20°C° 0 mm 1 m/s 747 mmHg 49%
    18:00 +19°C° 0 mm 1 m/s 747 mmHg 51%
    19:00 +18°C° 0 mm 1 m/s 748 mmHg 53%
    20:00 +16°C° 0 mm 0 m/s 748 mmHg 55%
    21:00 +15°C° 0 mm 0 m/s 748 mmHg 56%
    22:00 +15°C° 0 mm 0 m/s 748 mmHg 58%
    23:00 +14°C° 0 mm 0 m/s 748 mmHg 59%

    Poimâine, 25 Octombrie, Vineri

    Timp Temperatura Precipitaţii Vânt Presiune Umiditate
    00:00 +14°C° 0 mm 0 m/s 748 mmHg 60%
    01:00 +14°C° 0 mm 0 m/s 748 mmHg 61%
    02:00 +13°C° 0 mm 0 m/s 748 mmHg 61%
    03:00 +13°C° 0 mm 0 m/s 748 mmHg 62%
    04:00 +13°C° 0 mm 0 m/s 748 mmHg 63%
    05:00 +13°C° 0 mm 0 m/s 749 mmHg 63%
    06:00 +13°C° 0 mm 0 m/s 749 mmHg 63%
    07:00 +13°C° 0 mm 0 m/s 749 mmHg 62%
    08:00 +15°C° 0 mm 0 m/s 750 mmHg 56%
    09:00 +17°C° 0 mm 0 m/s 750 mmHg 49%
    10:00 +21°C° 0 mm 1 m/s 750 mmHg 42%
    11:00 +22°C° 0 mm 1 m/s 751 mmHg 40%
    12:00 +23°C° 0 mm 1 m/s 751 mmHg 37%
    13:00 +24°C° 0 mm 1 m/s 751 mmHg 35%
    14:00 +23°C° 0 mm 1 m/s 751 mmHg 39%
    15:00 +20°C° 0 mm 0 m/s 750 mmHg 43%
    16:00 +19°C° 0 mm 0 m/s 750 mmHg 47%
    17:00 +18°C° 0 mm 0 m/s 750 mmHg 50%
    18:00 +19°C° 0 mm 1 m/s 751 mmHg 53%
    19:00 +16°C° 0 mm 1 m/s 751 mmHg 56%
    20:00 +16°C° 0 mm 1 m/s 751 mmHg 59%
    21:00 +15°C° 0 mm 1 m/s 751 mmHg 62%
    22:00 +15°C° 0 mm 1 m/s 751 mmHg 65%
    23:00 +14°C° 0 mm 1 m/s 751 mmHg 68%

    26 Octombrie, Sâmbătă

    Timp Temperatura Precipitaţii Vânt Presiune Umiditate
    00:00 +14°C° 0 mm 1 m/s 751 mmHg 72%
    01:00 +13°C° 0 mm 1 m/s 751 mmHg 75%
    02:00 +13°C° 0 mm 1 m/s 751 mmHg 77%
    03:00 +12°C° 0 mm 0 m/s 751 mmHg 79%
    04:00 +11°C° 0 mm 0 m/s 751 mmHg 81%
    05:00 +11°C° 0 mm 0 m/s 751 mmHg 81%
    06:00 +11°C° 0 mm 0 m/s 751 mmHg 81%
    07:00 +11°C° 0 mm 0 m/s 751 mmHg 81%
    08:00 +13°C° 0 mm 0 m/s 751 mmHg 73%
    09:00 +16°C° 0 mm 1 m/s 751 mmHg 65%
    10:00 +19°C° 0 mm 1 m/s 752 mmHg 56%
    11:00 +19°C° 0 mm 2 m/s 751 mmHg 52%
    12:00 +21°C° 0 mm 2 m/s 751 mmHg 47%
    13:00 +23°C° 0 mm 2 m/s 751 mmHg 42%
    14:00 +21°C° 0 mm 2 m/s 751 mmHg 46%
    15:00 +20°C° 0 mm 2 m/s 750 mmHg 50%
    16:00 +19°C° 0 mm 2 m/s 750 mmHg 54%
    17:00 +18°C° 0 mm 2 m/s 750 mmHg 58%
    18:00 +18°C° 0 mm 1 m/s 750 mmHg 61%
    19:00 +16°C° 0 mm 1 m/s 750 mmHg 65%
    20:00 +15°C° 0 mm 1 m/s 750 mmHg 67%
    21:00 +15°C° 0 mm 1 m/s 750 mmHg 68%
    22:00 +15°C° 0 mm 1 m/s 750 mmHg 70%
    23:00 +14°C° 0 mm 1 m/s 750 mmHg 72%

    27 Octombrie, Duminică

    Timp Temperatura Precipitaţii Vânt Presiune Umiditate
    00:00 +14°C° 0 mm 1 m/s 750 mmHg 74%
    01:00 +14°C° 0 mm 1 m/s 750 mmHg 75%
    02:00 +13°C° 0 mm 1 m/s 750 mmHg 77%
    03:00 +13°C° 0 mm 1 m/s 749 mmHg 78%
    04:00 +12°C° 0 mm 1 m/s 749 mmHg 79%
    05:00 +12°C° 0 mm 1 m/s 749 mmHg 80%
    06:00 +12°C° 0 mm 1 m/s 749 mmHg 80%
    07:00 +12°C° 0 mm 1 m/s 749 mmHg 80%
    08:00 +14°C° 0 mm 1 m/s 749 mmHg 73%
    09:00 +16°C° 0 mm 2 m/s 749 mmHg 66%
    10:00 +18°C° 0 mm 2 m/s 749 mmHg 59%
    11:00 +19°C° 0 mm 3 m/s 749 mmHg 55%
    12:00 +20°C° 0 mm 3 m/s 749 mmHg 51%
    13:00 +21°C° 0 mm 4 m/s 749 mmHg 47%
    14:00 +20°C° 0 mm 4 m/s 749 mmHg 50%
    15:00 +20°C° 0 mm 4 m/s 749 mmHg 53%
    16:00 +19°C° 0 mm 3 m/s 749 mmHg 56%
    17:00 +18°C° 0 mm 3 m/s 749 mmHg 58%
    18:00 +17°C° 0 mm 3 m/s 750 mmHg 60%
    19:00 +17°C° 0 mm 3 m/s 750 mmHg 62%
    20:00 +14°C° 0 mm 3 m/s 750 mmHg 63%
    21:00 +13°C° 0 mm 3 m/s 751 mmHg 63%
    22:00 +12°C° 0 mm 3 m/s 751 mmHg 64%
    23:00 +12°C° 0 mm 2 m/s 751 mmHg 62%

    28 Octombrie, Luni

    Timp Temperatura Precipitaţii Vânt Presiune Umiditate
    00:00 +12°C° 0 mm 2 m/s 751 mmHg 60%
    01:00 +10°C° 0 mm 2 m/s 751 mmHg 59%
    02:00 +11°C° 0 mm 1 m/s 751 mmHg 57%
    03:00 +10°C° 0 mm 1 m/s 751 mmHg 56%
    04:00 +10°C° 0 mm 1 m/s 751 mmHg 55%
    05:00 +10°C° 0 mm 1 m/s 751 mmHg 55%
    06:00 +10°C° 0 mm 1 m/s 751 mmHg 55%
    07:00 +10°C° 0 mm 1 m/s 751 mmHg 56%
    08:00 +11°C° 0 mm 1 m/s 751 mmHg 54%
    09:00 +11°C° 0 mm 1 m/s 751 mmHg 51%
    10:00 +12°C° 0 mm 1 m/s 751 mmHg 49%
    11:00 +12°C° 0 mm 1 m/s 751 mmHg 49%
    12:00 +13°C° 0 mm 1 m/s 751 mmHg 49%
    13:00 +13°C° 0 mm 2 m/s 750 mmHg 49%
    14:00 +12°C° 0 mm 2 m/s 750 mmHg 53%
    15:00 +12°C° 0 mm 2 m/s 750 mmHg 57%
    16:00 +10°C° 0 mm 2 m/s 749 mmHg 60%
    17:00 +10°C° 0 mm 2 m/s 750 mmHg 63%
    18:00 +10°C° 0 mm 1 m/s 750 mmHg 65%
    19:00 +10°C° 0 mm 1 m/s 750 mmHg 68%
    20:00 +9°C° 0 mm 1 m/s 750 mmHg 70%
    21:00 +9°C° 0 mm 1 m/s 750 mmHg 71%
    22:00 +7°C° 0 mm 0 m/s 750 mmHg 73%
    23:00 +7°C° 0 mm 0 m/s 750 mmHg 73%
    Arată mai mult